Regional Weather Roundup
Issued by NWS

Home | Current Version | Previous Version | Graphics & Text | Print | Product List | Glossary On
Versions: 1 2 3 4 5 6 7 8 9 10 11 12 13 14 15 16 17 18 19 20 21 22 23 24 25 26 27 28 29 30 31 32 33 34 35 36 37 38 39 40 41 42 43 44 45 46 47 48 49 50
000
ASUS43 KMKX 282059
RWRWI

WISCONSIN REGIONAL WEATHER ROUNDUP
NATIONAL WEATHER SERVICE MILWAUKEE/SULLIVAN WI
300 PM CST SAT FEB 28 2015

NOTE: "FAIR" INDICATES FEW OR NO CLOUDS BELOW 12,000 FEET WITH NO
SIGNIFICANT WEATHER AND/OR OBSTRUCTIONS TO VISIBILITY.

WIZ001-002-006>008-014>016-023>028-282200-
NORTHWEST WISCONSIN

CITY           SKY/WX    TMP DP  RH WIND       PRES   REMARKS
SUPERIOR ARPT  SUNNY     24   4  42 SW16      30.36F WCI  11
ASHLAND        SUNNY     23  -1  35 SW15G22   30.38F WCI  10
HAYWARD        SUNNY     18   1  47 S15       30.37F WCI   4
SIREN          SUNNY     20   3  46 S16G22    30.39F WCI   6
CUMBERLAND     SUNNY     18   1  49 S14       30.39F WCI   4
RICE LAKE      SUNNY     17   2  51 S13       30.43F WCI   4
CHETEK         SUNNY     17   2  51 S13       30.43F WCI   4
LADYSMITH      SUNNY     19   0  44 S12       30.43F WCI   6
EAU CLAIRE     SUNNY     17  -1  45 S15       30.45F WCI   2
MENOMONIE      SUNNY     19   0  43 S13G18    30.46F WCI   5
NEW RICHMOND   SUNNY     19   5  54 S15       30.42F WCI   4
OSCEOLA        SUNNY     21   4  48 S14G22    30.44F WCI   8
$$

WIZ003>005-009-010-017-018-282200-
NORTH CENTRAL WISCONSIN

CITY           SKY/WX    TMP DP  RH WIND       PRES   REMARKS
MANITOWISH WTR SUNNY     19  -4  36 SW14G22   30.35F WCI   6
ARBOR VITAE    SUNNY     22  -3  33 SW9       30.36F WCI  11
WOODRUFF       SUNNY     22  -3  33 SW9       30.36F WCI  11
RHINELANDER    SUNNY     18  -2  41 S13       30.39F WCI   5
EAGLE RIVER    SUNNY     20  -5  32 SW8       30.36F WCI  11
LAND O LAKES   SUNNY     23  -5  29 SW9       30.35F WCI  13
PHILLIPS       SUNNY     18  -1  42 SW13      30.38F WCI   4
TOMAHAWK       SUNNY     19  -4  35 S3        30.41F
MEDFORD        SUNNY     15   0  50 S9        30.41F WCI   3
MERRILL        SUNNY     18  -1  43 SW10      30.44F WCI   6
$$

WIZ029-030-035-036-043>047-282200-
CENTRAL WISCONSIN

CITY           SKY/WX    TMP DP  RH WIND       PRES   REMARKS
WAUSAU         SUNNY     18  -1  43 S14       30.43F WCI   4
MOSINEE        SUNNY     18  -2  41 S12       30.46F WCI   5
MARSHFIELD     SUNNY     18  -3  39 S12       30.44F WCI   5
STEVENS POINT  SUNNY     18  -3  39 S9        30.48F WCI   7
WAUPACA        SUNNY     25  -4  28 S8        30.52F WCI  16
WAUTOMA        NOT AVBL
WISC RAPIDS    SUNNY     18  -6  34 SW13      30.50F WCI   5
CAMP DOUGLAS   NOT AVBL
$$

WIZ011>013-019>022-031-037>040-048>050-282200-
NORTHEAST WISCONSIN

CITY           SKY/WX    TMP DP  RH WIND       PRES   REMARKS
ANTIGO         SUNNY     17   0  46 SW9       30.42F WCI   6
SHAWANO        SUNNY     23  -1  35 SW10      30.53F WCI  12
OCONTO         SUNNY     19   3  49 S10G20    30.54F WCI   8
STURGEON BAY   SUNNY     19   1  45 SW13      30.55F WCI   7
GREEN BAY      SUNNY     19   3  49 S12       30.55F WCI   7
MANITOWOC      NOT AVBL
APPLETON       MOSUNNY   19  -2  38 SW12      30.53F WCI   7
CLINTONVILLE   SUNNY     21   1  42 S10       30.52F WCI  10
OSHKOSH        SUNNY     18  -1  43 SW12      30.54F WCI   5
$$

WIZ032>034-041-042-053>061-282200-
SOUTHWEST WISCONSIN

CITY           SKY/WX    TMP DP  RH WIND       PRES   REMARKS
LA CROSSE      SUNNY     18   0  45 S8        30.52F WCI   8
SPARTA         SUNNY     19  -2  40 S9        30.52F WCI   7
VIROQUA        SUNNY     17  -1  45 S7        30.47F WCI   7
BOSCOBEL       SUNNY     18  -2  41 SE6       30.55F WCI  10
PRAIRIE DU CHI SUNNY     17  -3  40 SE6       30.54F WCI   9
PLATTEVILLE    MOSUNNY   15   1  55 S3        30.52F
$$

WIZ056-057-062-063-064-067-068-282200-
SOUTH CENTRAL WISCONSIN

CITY           SKY/WX    TMP DP  RH WIND       PRES   REMARKS
REEDSBURG      SUNNY     17  -2  43 SW10      30.53F WCI   5
BARABOO/DELLS  SUNNY     18  -2  41 S9        30.52F WCI   6
LONE ROCK      NOT AVBL
MINERAL POINT  SUNNY     18   1  49 SE6       30.51F WCI   9
MADISON        MOSUNNY   16  -1  47 S10       30.55F WCI   4
MIDDLETON      SUNNY     19  -1  43 S9        30.55F WCI   7
WATERTOWN      SUNNY     17   1  49 S10       30.56F WCI   5
MONROE         SUNNY     16   5  62 S7        30.53F WCI   6
JANESVILLE     NOT AVBL
$$

WIZ051-052-058>065-066-070>072-282200-
SOUTHEAST WISCONSIN

CITY           SKY/WX    TMP DP  RH WIND       PRES   REMARKS
MILWAUKEE      MOSUNNY   17  -1  45 S9        30.58F WCI   6
WAUKESHA       NOT AVBL
MILWAUKEE/TIMM SUNNY     19  -6  32 S8        30.58F WCI   9
RACINE         SUNNY     18   4  54 SE6       30.60F WCI  10
BURLINGTON     SUNNY     18   0  46 SW8       30.57F WCI   7
KENOSHA        SUNNY     19   0  43 S3        30.57F
FOND DU LAC    SUNNY     19  -2  39 S14       30.55F WCI   6
SHEBOYGAN      SUNNY     20   0  41 SW9       30.55F WCI   9
WEST BEND      SUNNY     21  -4  33 S8        30.55F WCI  12
JUNEAU         SUNNY     16  -1  45 S10       30.56F WCI   4
$$

LSZ147-162-282200-
LAKE SUPERIOR

STATION/POSITION TIME  TEMP    WIND        PRES    WAVE
                       AIR SEA DIR/SP/G            HT/PER
                 (UTC) (F)     (DEG/KT/KT) (MB)    (FT/S)
DEVILS ISLAND    2000   20     240/  5/  7 1030.4F
PORT WING        2040   23     190/ 13/ 19 1028.4F
SAXON HARBOR     2000   25     210/  7/ 15 1029.1F
$$

LMZ867-665-643>646-282200-
LAKE MICHIGAN

STATION/POSITION TIME  TEMP    WIND        PRES    WAVE
                       AIR SEA DIR/SP/G            HT/PER
                 (UTC) (F)     (DEG/KT/KT) (MB)    (FT/S)
NORTHPORT PIER   2000   22     200/  6/ 13 1033.9F
SISTER BAY       2013   32     260/  9/ 11   N/A
KEWAUNEE LAKESHO 2000   19     180/ 13/ 18 1034.0F
SHEBOYGAN LAKESH 2000   17     170/ 15/ 17 1037.3F
PORT WASHINGTON  2040   20     160/ 11/ 16 1035.6F
MILWAUKEE LAKESH 2000   17     190/  9/ 11   N/A
KENOSHA   LAKESH 2000   19     160/ 10/ 12 1036.2F
$$

TC  - TEMPERATURE IN CELSIUS
VSB - VISIBILITY IN STATUTE MILES
WCI - WIND CHILL INDEX
HX  - HEAT INDEX




USA.gov is the U.S. government's official web portal to all federal, state and local government web resources and services.